CW8014 Weather Reports


time (UTC)temp
C
wind
direction
speed
KPH
gust
KPH
rain 1hr
cm
rain 24hr
cm
rain mn
cm
humidity
%
barometer
mb
20260831193409 16 288 6.4 16.1 0.00 0.43 0.43 92 1012.2
20260831192409 16 270 6.4 17.7 0.00 0.43 0.43 91 1012.1
20260831191409 16 279 4.8 17.7 0.00 0.43 0.43 91 1012.0
20260831190409 16 171 8.0 19.3 0.00 0.43 0.43 91 1012.0
20260831185409 16 274 6.4 19.3 0.00 0.43 0.43 90 1011.7
20260831184409 16 263 6.4 14.5 0.00 0.43 0.43 90 1011.5
20260831183409 16 229 8.0 22.5 0.00 0.43 0.43 89 1011.4
20260831182409 16 274 9.7 19.3 0.00 0.43 0.43 88 1011.1
20260831181410 16 271 8.0 19.3 0.00 0.43 0.43 86 1011.0
20260831180409 17 229 9.7 27.4 0.00 0.43 0.43 86 1010.9
20260831175409 17 258 8.0 17.7 0.00 0.43 0.43 85 1010.7
20260831173409 17 239 9.7 24.1 0.00 0.43 0.43 85 1010.5
20260831172409 17 266 8.0 19.3 0.00 0.43 0.43 84 1010.5
20260831171409 17 326 12.9 27.4 0.00 0.43 0.43 85 1010.4
20260831170410 17 286 8.0 24.1 0.00 0.43 0.43 86 1010.2
20260831164409 17 242 9.7 24.1 0.00 0.48 0.43 86 1010.0
20260831163409 17 286 8.0 25.7 0.00 0.48 0.43 86 1010.1
20260831162409 17 250 9.7 29.0 0.00 0.48 0.43 85 1010.0
20260831161409 17 234 12.9 25.7 0.00 0.48 0.43 85 1009.8
20260831160409 17 248 9.7 20.9 0.00 0.48 0.43 85 1009.7
20260831155409 17 223 8.0 24.1 0.00 0.48 0.43 85 1009.7
20260831154409 17 257 14.5 33.8 0.00 0.48 0.43 84 1009.6
20260831152409 17 201 8.0 20.9 0.20 0.48 0.43 90 1009.3
20260831151409 16 234 9.7 25.7 0.20 0.48 0.43 90 1009.2
20260831150409 17 78 6.4 17.7 0.20 0.48 0.43 92 1009.1
20260831145409 16 155 4.8 16.1 0.20 0.48 0.43 92 1009.2
20260831144409 17 219 8.0 17.7 0.20 0.48 0.43 87 1008.9
20260831142404 18 178 11.3 22.5 0.00 0.28 0.23 83 1008.8
20260831140404 17 176 6.4 20.9 0.03 0.28 0.23 87 1008.9
20260831135405 17 186 8.0 17.7 0.03 0.28 0.23 87 1009.0
20260831134404 16 212 9.7 25.7 0.03 0.28 0.23 89 1008.9
20260831133404 16 169 9.7 20.9 0.05 0.28 0.23 89 1008.8
20260831132404 16 170 9.7 20.9 0.08 0.28 0.23 87 1008.8
20260831131404 16 181 8.0 17.7 0.05 0.25 0.20 85 1009.0
20260831130404 16 232 6.4 20.9 0.05 0.25 0.20 85 1008.9
20260831125404 16 227 6.4 17.7 0.05 0.25 0.20 87 1008.7
20260831124404 17 267 9.7 20.9 0.05 0.25 0.20 84 1008.5
20260831123404 19 343 11.3 30.6 0.10 0.23 0.15 81 1008.5
20260831122404 19 173 11.3 24.1 0.13 0.20 0.15 85 1008.2
20260831121404 18 213 12.9 30.6 0.13 0.20 0.15 88 1008.1
20260831120404 16 140 8.0 16.1 0.13 0.20 0.15 89 1008.0
20260831115404 16 174 9.7 19.3 0.13 0.20 0.15 89 1008.3
20260831113404 19 200 16.1 43.5 0.05 0.13 0.05 82 1008.2
20260831112405 20 173 12.9 37.0 0.00 0.08 0.03 74 1007.8
20260831111404 21 126 16.1 29.0 0.00 0.08 0.03 71 1007.6
20260831110404 21 170 12.9 25.7 0.00 0.08 0.03 72 1007.6
20260831105404 21 168 12.9 33.8 0.00 0.28 0.03 71 1007.8
20260831104404 21 165 9.7 25.7 0.00 0.28 0.03 74 1007.9
20260831103404 20 199 9.7 20.9 0.00 0.28 0.03 77 1008.0
20260831102404 20 159 12.9 38.6 0.00 0.28 0.03 76 1008.1
20260831101404 20 177 12.9 35.4 0.00 0.28 0.03 76 1008.2
20260831100404 20 166 12.9 30.6 0.00 0.28 0.03 78 1008.2
20260831094404 20 194 11.3 25.7 0.00 0.28 0.03 77 1008.1
20260831093406 20 185 9.7 19.3 0.00 0.28 0.03 79 1008.1
20260831092404 20 262 9.7 19.3 0.00 0.28 0.03 79 1008.1
20260831091404 19 189 12.9 25.7 0.00 0.28 0.03 79 1008.1
20260831090404 19 166 9.7 25.7 0.00 0.28 0.03 80 1007.9
20260831084404 18 257 9.7 22.5 0.00 0.28 0.03 83 1008.2
20260831083404 18 166 11.3 27.4 0.00 0.28 0.03 83 1008.1
20260831081404 18 175 9.7 27.4 0.00 0.28 0.03 86 1008.3
20260831080404 18 172 9.7 25.7 0.00 0.28 0.03 86 1008.4
20260831075404 18 186 11.3 30.6 0.00 0.30 0.03 86 1008.4
20260831073404 18 193 6.4 17.7 0.00 0.30 0.03 87 1008.4
20260831071404 18 145 9.7 19.3 0.00 0.30 0.03 88 1008.3
20260831070404 17 178 8.0 19.3 0.00 0.30 0.03 88 1008.3
20260831065404 17 197 4.8 19.3 0.00 0.30 0.03 89 1008.2
20260831064404 17 222 6.4 16.1 0.00 0.30 0.03 90 1008.2
20260831063404 17 187 6.4 16.1 0.00 0.30 0.03 91 1008.1
20260831062404 17 140 6.4 12.9 0.00 0.30 0.03 92 1008.1
20260831055404 16 188 6.4 14.5 0.00 0.33 0.03 93 1008.0
20260831053404 16 155 4.8 12.9 0.00 0.33 0.03 93 1008.1
20260831052404 16 213 3.2 11.3 0.00 0.33 0.03 93 1008.0
20260831051405 16 171 4.8 9.7 0.00 0.33 0.03 94 1008.0
20260831045404 16 168 4.8 9.7 0.03 0.33 0.03 94 1008.0
20260831043404 16 146 4.8 9.7 0.03 0.33 0.03 93 1008.1
20260831042409 16 163 4.8 11.3 0.03 0.33 0.03 93 1008.0
20260831034409 16 148 4.8 11.3 0.00 0.33 0.00 94 1008.1
20260831033409 16 169 4.8 8.0 0.00 0.33 0.00 94 1008.2
20260831032409 16 170 4.8 11.3 0.00 0.33 0.00 94 1008.1
20260831030409 16 173 6.4 14.5 0.00 0.33 0.00 94 1008.2
20260831025409 16 155 6.4 16.1 0.00 0.33 0.00 94 1008.2
20260831024409 15 161 6.4 11.3 0.00 0.33 0.00 95 1008.4
20260831023409 15 171 6.4 11.3 0.00 0.33 0.00 95 1008.5
20260831022409 15 165 4.8 9.7 0.00 0.33 0.00 95 1008.4
20260831021410 15 168 4.8 11.3 0.00 0.33 0.00 95 1008.3
20260831020409 15 167 4.8 9.7 0.00 0.33 0.00 95 1008.6
20260831015409 16 162 6.4 14.5 0.00 0.36 0.00 95 1008.6
20260831014409 16 173 4.8 11.3 0.00 0.36 0.00 95 1008.7
20260831013409 16 152 4.8 12.9 0.00 0.36 0.00 96 1008.8
20260831012409 16 150 4.8 9.7 0.00 0.36 0.00 96 1009.0
20260831010409 16 159 6.4 11.3 0.00 0.36 0.00 96 1009.3
20260831005409 16 165 6.4 11.3 0.00 0.36 0.00 96 1009.3
20260831004410 16 161 4.8 12.9 0.00 0.36 0.00 97 1009.3
20260831003409 16 144 4.8 8.0 0.00 0.36 0.00 97 1009.4
20260831002410 16 146 3.2 6.4 0.00 0.36 0.00 97 1009.3
20260831001411 16 156 3.2 8.0 0.00 0.36 0.00 97 1009.5
20260831000410 16 144 4.8 9.7 0.00 0.36 0.00 96 1009.5
20260830235409 15 161 3.2 8.0 0.00 0.36 0.00 96 1009.6
20260830234409 16 151 3.2 4.8 0.00 0.36 0.00 97 1009.6
20260830232409 16 161 3.2 8.0 0.00 0.36 0.00 97 1010.0
20260830231410 16 159 3.2 8.0 0.00 0.36 0.00 97 1010.1
20260830230409 16 174 3.2 6.4 0.00 0.36 0.00 97 1010.2
20260830225409 16 144 4.8 8.0 0.00 0.38 0.00 97 1010.3
20260830224410 16 149 3.2 6.4 0.00 0.38 0.00 97 1010.5
20260830223409 16 145 3.2 4.8 0.00 0.38 0.00 97 1010.6
20260830222409 16 153 1.6 4.8 0.00 0.38 0.00 97 1010.8
20260830221410 16 155 3.2 4.8 0.00 0.38 0.00 97 1010.8
20260830220410 16 148 3.2 6.4 0.00 0.38 0.00 97 1010.8
20260830215410 16 151 3.2 4.8 0.00 0.43 0.43 97 1010.9
20260830214409 16 152 3.2 4.8 0.00 0.43 0.43 97 1010.8
20260830213410 16 155 3.2 6.4 0.00 0.43 0.43 96 1010.9
20260830212410 16 161 1.6 6.4 0.00 0.43 0.43 96 1011.0
20260830211410 16 161 1.6 6.4 0.00 0.43 0.43 96 1011.0
20260830210410 16 162 3.2 6.4 0.00 0.43 0.43 96 1011.0
20260830204409 16 160 1.6 6.4 0.00 0.46 0.43 96 1011.1
20260830203410 16 159 3.2 6.4 0.00 0.46 0.43 96 1011.2
20260830202410 16 161 3.2 6.4 0.00 0.46 0.43 96 1011.2
20260830201410 16 179 0.0 3.2 0.00 0.46 0.43 96 1011.3
20260830200409 16 179 0.0 1.6 0.00 0.46 0.43 96 1011.4
20260830195410 17 179 1.6 3.2 0.00 0.46 0.43 96 1011.5
20260830194409 17 179 1.6 3.2 0.00 0.46 0.43 95 1011.5